Pagina principale
METAR-TAF:

METAR-TAF

Aeroporti :

Capo Mele

Andora, Italia

latitudine: 43-57N, longitudine: 008-10E, altezza: 220 m

Osservazione

Il bollettino è stato emesso 30 minuti fa, alle 09:55 UTC
Vento 17 kt da sud-ovest
Temperature 16°C
Umidità 100%
Pressione 1006 hPa
Visibilità: 1200 m
Poco nuvoloso ad un'altezza di 100 ft
Nuvoloso ad un'altezza di 2000 ft
Nubi sparse ad un'altezza di 2300 ft, Cumulonembo.
temporale, pioggia debole

METAR: LIMU 070955Z 23017KT 1200 -TSRA FEW001 BKN020 SCT023CB 16/16 Q1006 RMK OVC QUK / QUL / VIS MAR 1200 M VIS MIN 1200

Ora: 12:25 (10:25 UTC)


TAF: mancante

Osservazioni e previsioni meteorologiche di più di 4000 aeroporti (messaggi METAR e TAF).

Le stazioni disponibili sono rappresentate dai dischi gialli e rossi sulla carta.

Puntare il mouse per vedere il nome della stazione.

Clicca sopra per visualizzare le osservazioni e previsioni meteorologiche.

Per cambiare la mappa : fare clic sui pulsanti verdi con una croce nera per ingrandire, il pulsante verde con un trattino per diminuire, o sulla freccia verde per le mappe adiacenti.


METAR-TAF: